�N����,����,�~����,�C��,���x,�C��,����,���ϕ���,�ő�u�ԕ���,�ő厞����,���˗�,�I�_���x,�n�����x,�ő啗���N��,DTYPE
"21/10/08","00:10",0.0,22.4,87.2,1014.2,303.6,1.0,1.8,331.7,0.00,20.2,23.2,"00:04:48",1
"21/10/08","00:20",0.0,22.4,87.4,1014.2,320.3,0.8,1.6,326.2,0.00,20.2,23.3,"00:19:28",1
"21/10/08","00:30",0.0,22.4,87.5,1014.2,330.9,1.1,1.9,331.3,0.00,20.3,23.2,"00:24:48",1
"21/10/08","00:40",0.0,22.2,87.7,1014.2,302.8,1.2,1.9,343.8,0.00,20.1,23.1,"00:31:04",1
"21/10/08","00:50",0.0,22.1,88.0,1014.5,295.3,1.1,1.8,313.2,0.00,20.1,23.0,"00:43:36",1
"21/10/08","01:00",0.0,22.0,88.2,1014.5,286.5,0.8,1.3,267.0,0.00,20.0,23.1,"00:50:32",1
"21/10/08","01:10",0.0,22.0,88.4,1014.7,329.6,1.1,1.7,314.3,0.00,20.0,23.0,"01:00:56",1
"21/10/08","01:20",0.0,21.9,88.5,1014.5,316.4,1.2,1.4,313.7,0.00,20.0,23.0,"01:13:52",1
"21/10/08","01:30",0.0,21.6,88.8,1014.5,290.9,0.8,1.1,274.1,0.00,19.7,23.2,"01:27:20",1
"21/10/08","01:40",0.0,21.6,89.1,1014.5,303.1,1.2,1.7,318.0,0.00,19.8,23.2,"01:34:56",1
"21/10/08","01:50",0.0,21.6,89.4,1014.2,301.5,1.1,2.1,327.9,0.00,19.8,23.1,"01:41:12",1
"21/10/08","02:00",0.0,21.7,89.6,1014.2,315.9,1.6,2.6,338.0,0.00,20.0,23.3,"01:53:52",1
"21/10/08","02:10",0.0,21.6,89.7,1014.2,310.4,1.6,2.4,314.2,0.00,19.9,23.1,"02:04:00",1
"21/10/08","02:20",0.0,21.6,89.9,1014.5,304.5,1.2,2.7,331.4,0.00,19.9,22.9,"02:16:00",1
"21/10/08","02:30",0.0,21.5,90.0,1014.5,322.8,0.8,2.0,323.0,0.00,19.8,23.1,"02:27:52",1
"21/10/08","02:40",0.0,21.5,90.2,1014.7,312.4,1.3,2.1,347.0,0.00,19.9,23.0,"02:32:24",1
"21/10/08","02:50",0.0,21.4,90.3,1014.7,302.6,1.0,1.8,308.2,0.00,19.8,22.8,"02:40:24",1
"21/10/08","03:00",0.0,21.3,90.3,1014.7,312.5,1.0,1.3,316.8,0.00,19.7,23.0,"02:56:24",1
"21/10/08","03:10",0.0,21.0,90.5,1014.7,314.7,1.0,1.4,325.4,0.00,19.4,23.1,"03:09:52",1
"21/10/08","03:20",0.0,20.9,90.6,1014.7,327.8,1.2,1.8,325.0,0.00,19.3,22.8,"03:16:48",1
"21/10/08","03:30",0.0,20.7,90.9,1014.7,293.0,1.2,2.0,300.4,0.00,19.2,22.8,"03:24:32",1
"21/10/08","03:40",0.0,20.4,91.1,1014.9,295.4,0.8,1.1,271.7,0.00,18.9,23.0,"03:30:48",1
"21/10/08","03:50",0.0,20.3,91.2,1014.9,315.4,1.0,1.4,333.9,0.00,18.9,22.9,"03:42:40",1
"21/10/08","04:00",0.0,20.0,91.4,1014.9,304.7,0.6,0.9,322.3,0.00,18.6,22.8,"03:57:20",1
"21/10/08","04:10",0.0,19.7,91.5,1015.2,301.6,0.7,1.0,316.0,0.00,18.3,22.9,"04:00:48",1
"21/10/08","04:20",0.0,19.8,91.7,1015.2,302.3,0.8,1.1,316.3,0.00,18.5,22.8,"04:17:12",1
"21/10/08","04:30",0.0,19.8,91.9,1015.2,306.5,0.8,1.3,322.1,0.00,18.5,22.8,"04:20:32",1
"21/10/08","04:40",0.0,19.9,92.0,1014.9,297.5,1.0,1.4,307.0,0.00,18.6,22.7,"04:32:32",1
"21/10/08","04:50",0.0,19.9,92.2,1015.2,307.1,1.0,1.7,320.5,0.00,18.6,22.8,"04:46:48",1
"21/10/08","05:00",0.0,19.8,92.3,1015.6,307.7,0.7,1.2,319.5,0.00,18.6,22.7,"04:55:20",1
"21/10/08","05:10",0.0,19.9,92.5,1015.6,324.9,0.8,1.3,320.4,0.00,18.7,22.7,"05:04:16",1
"21/10/08","05:20",0.0,19.8,92.5,1015.6,320.8,1.1,1.7,335.3,0.00,18.6,22.6,"05:10:24",1
"21/10/08","05:30",0.0,19.8,92.7,1015.6,283.4,0.6,1.1,276.3,0.00,18.6,22.6,"05:28:16",1
"21/10/08","05:40",0.0,20.0,92.8,1015.9,287.7,1.0,1.4,299.2,0.00,18.8,22.5,"05:34:24",1
"21/10/08","05:50",0.0,20.2,93.0,1015.9,294.1,1.0,1.6,302.6,0.00,19.1,22.4,"05:48:08",1
"21/10/08","06:00",0.0,20.3,93.1,1015.9,312.0,1.2,2.4,326.5,0.00,19.2,22.7,"05:57:36",1
"21/10/08","06:10",0.0,20.4,93.1,1015.9,325.7,1.0,2.0,338.7,0.00,19.3,22.6,"06:00:48",1
"21/10/08","06:20",0.0,20.3,93.2,1015.9,324.4,1.1,1.7,323.5,0.00,19.2,22.6,"06:19:44",1
"21/10/08","06:30",0.0,20.4,93.4,1016.1,324.3,1.5,2.5,341.7,0.00,19.3,22.5,"06:23:04",1
"21/10/08","06:40",0.0,20.4,93.4,1015.9,314.6,1.1,2.0,333.9,0.00,19.3,22.5,"06:39:36",1
"21/10/08","06:50",0.0,20.4,93.5,1015.9,306.0,1.2,2.6,333.9,0.00,19.4,22.5,"06:42:00",1
"21/10/08","07:00",0.0,20.5,93.5,1016.4,312.9,1.5,2.2,327.2,0.00,19.5,22.4,"06:53:20",1
"21/10/08","07:10",0.0,20.5,93.6,1016.1,312.9,1.5,2.8,322.9,0.00,19.5,22.7,"07:04:08",1
"21/10/08","07:20",0.0,20.6,93.5,1016.1,308.2,1.3,2.5,340.9,0.01,19.6,22.3,"07:15:36",1
"21/10/08","07:30",0.0,20.7,93.5,1016.1,324.2,1.7,3.4,344.2,0.02,19.7,22.5,"07:23:52",1
"21/10/08","07:40",0.0,20.8,93.3,1016.6,322.8,1.8,3.1,325.3,0.01,19.7,22.3,"07:33:44",1
"21/10/08","07:50",0.0,20.9,93.1,1016.8,313.9,2.0,4.1,322.0,0.02,19.8,22.5,"07:46:16",1
"21/10/08","08:00",0.0,21.0,92.9,1016.6,320.9,1.8,3.3,326.6,0.02,19.8,22.3,"07:56:32",1
"21/10/08","08:10",0.0,21.3,92.6,1016.4,309.6,1.3,2.7,315.9,0.04,20.1,22.4,"08:08:56",1
"21/10/08","08:20",0.0,21.5,92.3,1016.6,305.5,1.3,2.6,325.4,0.06,20.2,22.3,"08:18:08",1
"21/10/08","08:30",0.0,21.9,92.1,1016.4,310.7,1.0,1.9,320.9,0.10,20.6,22.3,"08:22:56",1
"21/10/08","08:40",0.0,22.2,91.4,1016.6,278.0,0.8,1.7,232.3,0.11,20.8,22.5,"08:38:24",1
"21/10/08","08:50",0.0,22.9,91.2,1016.4,273.5,0.7,1.6,280.5,0.17,21.4,22.3,"08:42:40",1
"21/10/08","09:00",0.0,23.5,89.5,1016.1,285.8,0.7,1.7,332.3,0.25,21.7,22.3,"08:52:56",1
"21/10/08","09:10",0.0,23.8,88.2,1016.1,235.8,0.2,1.3,284.1,0.06,21.8,22.4,"09:00:16",1
"21/10/08","09:20",0.0,24.0,86.6,1016.6,187.3,0.7,1.7,209.4,0.16,21.7,22.3,"09:14:48",1
"21/10/08","09:30",0.0,24.8,84.7,1016.1,118.4,0.6,1.3,116.4,0.32,22.1,22.5,"09:26:40",1
"21/10/08","09:40",0.0,25.6,81.8,1016.1,176.4,0.6,1.3,119.5,0.33,22.3,22.5,"09:32:48",1
"21/10/08","09:50",0.0,26.3,78.2,1014.9,109.5,0.7,1.9,93.6,0.36,22.2,22.5,"09:42:32",1
"21/10/08","10:00",0.0,26.7,75.4,1015.2,193.6,1.1,2.8,228.2,0.38,22.0,22.6,"09:50:02",1
"21/10/08","10:10",0.0,26.9,73.1,1015.4,153.7,1.0,2.5,236.0,0.39,21.7,22.7,"10:00:32",1
"21/10/08","10:20",0.0,27.5,71.5,1015.4,157.8,0.8,2.9,125.8,0.40,21.9,22.6,"10:18:00",1
"21/10/08","10:30",0.0,27.8,70.4,1015.6,184.5,1.1,3.3,219.4,0.43,22.0,22.6,"10:22:48",1
"21/10/08","10:40",0.0,28.0,67.3,1015.6,118.4,1.1,3.3,129.0,0.45,21.4,22.8,"10:38:40",1
"21/10/08","10:50",0.0,28.1,65.8,1015.4,172.4,1.3,2.5,226.4,0.47,21.1,22.8,"10:44:16",1
"21/10/08","11:00",0.0,28.5,64.3,1015.9,153.7,1.3,2.4,116.6,0.50,21.1,23.1,"10:56:00",1
"21/10/08","11:10",0.0,28.4,64.9,1015.6,186.1,1.2,3.6,217.8,0.37,21.2,22.8,"11:01:28",1
"21/10/08","11:20",0.0,28.3,66.2,1015.4,224.4,0.8,2.6,195.1,0.37,21.4,23.2,"11:11:04",1
"21/10/08","11:30",0.0,29.0,63.2,1015.2,143.8,1.6,4.3,232.2,0.53,21.3,23.2,"11:21:44",1
"21/10/08","11:40",0.0,28.6,62.9,1015.4,155.2,1.0,2.7,143.4,0.31,20.9,23.2,"11:32:40",1
"21/10/08","11:50",0.0,28.4,61.0,1015.4,126.4,0.8,2.0,95.1,0.23,20.2,23.2,"11:46:56",1
"21/10/08","12:00",0.0,27.9,63.3,1014.9,136.9,0.6,1.6,148.6,0.18,20.3,23.4,"11:50:24",1
"21/10/08","12:10",0.0,28.4,62.0,1014.7,146.4,0.6,2.1,115.5,0.26,20.5,23.4,"12:01:28",1
"21/10/08","12:20",0.0,29.1,59.7,1014.7,40.2,0.8,2.2,57.5,0.42,20.5,23.4,"12:16:24",1
"21/10/08","12:30",0.0,29.0,58.9,1014.5,57.3,0.7,1.7,29.5,0.23,20.2,23.5,"12:21:52",1
"21/10/08","12:40",0.0,29.9,55.8,1014.5,79.7,0.7,1.9,118.8,0.43,20.2,23.7,"12:36:32",1
"21/10/08","12:50",0.0,29.9,54.6,1014.5,31.4,0.5,1.4,0.1,0.30,19.8,23.5,"12:46:32",1
"21/10/08","13:00",0.0,30.8,53.4,1014.9,74.2,0.7,2.1,332.8,0.53,20.3,23.6,"12:51:20",1
"21/10/08","13:10",0.0,30.6,50.8,1014.7,40.4,0.8,1.9,4.5,0.36,19.3,23.7,"13:03:52",1
"21/10/08","13:20",0.0,31.1,50.5,1014.9,36.7,1.0,2.9,15.2,0.54,19.7,23.7,"13:12:40",1
"21/10/08","13:30",0.0,31.8,50.3,1014.9,103.6,0.7,2.1,123.2,0.50,20.2,23.9,"13:21:44",1
"21/10/08","13:40",0.0,31.7,46.9,1015.2,124.0,1.0,1.9,71.6,0.50,19.0,24.0,"13:32:16",1
"21/10/08","13:50",0.0,32.0,47.5,1015.4,128.8,0.8,3.2,135.4,0.49,19.5,24.1,"13:44:00",1
"21/10/08","14:00",0.0,32.5,47.1,1014.9,119.1,0.6,1.7,171.0,0.47,19.8,24.0,"13:50:56",1
"21/10/08","14:10",0.0,31.6,48.0,1014.7,158.0,1.6,4.2,232.8,0.45,19.3,24.4,"14:09:20",1
"21/10/08","14:20",0.0,31.5,49.0,1015.2,239.3,1.1,4.4,220.3,0.45,19.5,24.3,"14:10:08",1
"21/10/08","14:30",0.0,31.1,48.7,1014.7,193.4,1.6,3.6,224.8,0.41,19.1,24.4,"14:25:36",1
"21/10/08","14:40",0.0,31.2,48.3,1014.5,217.0,1.3,5.0,207.2,0.38,19.0,24.4,"14:35:52",1
"21/10/08","14:50",0.0,31.2,47.2,1014.5,200.1,1.5,3.3,213.9,0.36,18.7,24.5,"14:49:28",1
"21/10/08","15:00",0.0,31.1,49.5,1014.7,209.1,2.0,4.7,214.6,0.35,19.3,24.4,"14:53:28",1
"21/10/08","15:10",0.0,31.1,46.7,1014.2,203.9,1.5,5.1,217.5,0.32,18.4,24.7,"15:07:44",1
"21/10/08","15:20",0.0,30.6,47.6,1014.7,227.7,2.2,4.5,201.7,0.29,18.3,24.9,"15:14:56",1
"21/10/08","15:30",0.0,31.0,48.1,1014.2,202.4,1.3,3.6,213.1,0.26,18.8,24.6,"15:27:52",1
"21/10/08","15:40",0.0,31.0,48.0,1014.2,195.9,1.1,4.0,225.6,0.23,18.7,24.7,"15:39:52",1
"21/10/08","15:50",0.0,31.1,48.2,1014.2,194.9,1.1,3.1,230.1,0.22,18.9,24.7,"15:40:08",1
"21/10/08","16:00",0.0,30.8,48.5,1014.0,232.4,1.6,3.3,224.9,0.19,18.7,24.9,"15:56:00",1
"21/10/08","16:10",0.0,30.8,48.7,1014.2,251.5,1.1,2.1,235.4,0.17,18.8,24.8,"16:08:40",1
"21/10/08","16:20",0.0,30.7,47.8,1014.2,331.1,1.0,1.8,352.7,0.14,18.4,24.9,"16:14:40",1
"21/10/08","16:30",0.0,30.8,46.8,1014.5,305.9,0.6,2.0,254.0,0.11,18.2,25.0,"16:22:08",1
"21/10/08","16:40",0.0,30.7,47.5,1014.2,240.3,0.6,1.3,335.8,0.10,18.3,24.8,"16:33:12",1
"21/10/08","16:50",0.0,30.7,47.7,1013.5,261.5,0.8,3.5,244.0,0.07,18.4,24.9,"16:49:52",1
"21/10/08","17:00",0.0,30.2,51.0,1013.8,286.6,0.6,1.7,333.6,0.05,19.0,24.8,"16:59:52",1
"21/10/08","17:10",0.0,29.0,55.5,1013.5,343.0,1.3,2.1,351.1,0.03,19.2,24.8,"17:00:56",1
"21/10/08","17:20",0.0,28.1,59.5,1012.6,325.5,1.2,2.4,339.9,0.02,19.5,24.8,"17:13:36",1
"21/10/08","17:30",0.0,27.5,62.5,1012.8,299.3,1.0,1.8,303.5,0.01,19.7,24.7,"17:23:52",1
"21/10/08","17:40",0.0,26.8,64.2,1012.3,315.5,1.5,2.9,298.7,0.00,19.5,24.6,"17:34:00",1
"21/10/08","17:50",0.0,26.2,65.6,1013.0,307.8,1.6,3.2,333.5,0.00,19.3,24.6,"17:42:56",1
"21/10/08","18:00",0.0,25.9,66.6,1013.5,280.3,1.0,2.1,246.6,0.00,19.2,24.8,"17:59:20",1
"21/10/08","18:10",0.0,25.6,67.7,1013.3,282.3,0.7,1.9,251.7,0.00,19.2,24.7,"18:04:08",1
"21/10/08","18:20",0.0,25.2,68.7,1013.5,317.8,1.2,2.7,333.6,0.00,19.1,24.6,"18:18:48",1
"21/10/08","18:30",0.0,24.9,70.0,1013.8,320.3,1.5,3.2,336.5,0.00,19.1,24.7,"18:20:32",1
"21/10/08","18:40",0.0,24.6,71.6,1014.0,310.2,1.2,2.5,330.0,0.00,19.2,24.7,"18:32:00",1
"21/10/08","18:50",0.0,24.4,72.6,1014.5,298.8,0.8,1.6,334.7,0.00,19.2,24.7,"18:49:28",1
"21/10/08","19:00",0.0,24.3,73.4,1014.7,328.6,1.2,2.5,327.4,0.00,19.3,24.5,"18:53:20",1
"21/10/08","19:10",0.0,24.0,74.0,1014.7,291.5,0.7,1.4,265.3,0.00,19.1,24.4,"19:05:04",1
"21/10/08","19:20",0.0,23.8,74.9,1014.9,291.5,0.8,1.3,343.0,0.00,19.1,24.7,"19:10:08",1
"21/10/08","19:30",0.0,23.5,75.7,1015.2,287.5,1.0,1.6,292.1,0.00,19.0,24.6,"19:25:04",1
"21/10/08","19:40",0.0,23.4,76.5,1015.2,304.1,1.0,1.9,267.6,0.00,19.1,24.5,"19:39:04",1
"21/10/08","19:50",0.0,23.3,77.1,1015.2,306.2,1.2,2.1,336.2,0.00,19.1,24.3,"19:47:12",1
"21/10/08","20:00",0.0,23.2,77.2,1015.4,296.7,0.8,2.5,310.6,0.00,19.0,24.3,"19:53:28",1
"21/10/08","20:10",0.0,22.9,77.7,1015.9,285.5,0.8,1.8,315.1,0.00,18.8,24.2,"20:07:44",1
"21/10/08","20:20",0.0,22.9,78.1,1015.6,292.4,1.1,2.2,324.7,0.00,18.9,24.5,"20:11:52",1
"21/10/08","20:30",0.0,22.9,78.0,1015.9,295.7,1.0,1.9,333.5,0.00,18.9,24.2,"20:25:36",1
"21/10/08","20:40",0.0,22.7,78.1,1016.1,290.9,1.0,2.0,331.6,0.00,18.7,24.2,"20:30:40",1
"21/10/08","20:50",0.0,22.6,78.6,1016.4,284.0,1.0,1.4,314.1,0.00,18.7,24.2,"20:49:52",1
"21/10/08","21:00",0.0,22.6,78.9,1016.4,275.8,1.1,1.4,263.3,0.00,18.8,24.3,"20:54:24",1
"21/10/08","21:10",0.0,22.4,79.1,1016.4,287.0,0.8,1.4,257.8,0.00,18.6,24.0,"21:00:48",1
"21/10/08","21:20",0.0,22.1,79.6,1016.8,300.3,0.8,1.2,334.1,0.00,18.4,23.8,"21:10:24",1
"21/10/08","21:30",0.0,22.0,80.3,1016.8,293.4,1.1,2.2,338.5,0.00,18.5,23.8,"21:25:04",1
"21/10/08","21:40",0.0,22.0,80.9,1017.1,324.0,1.3,2.5,351.7,0.00,18.6,23.9,"21:37:12",1
"21/10/08","21:50",0.0,21.9,81.1,1017.3,320.3,1.6,2.6,321.0,0.00,18.6,23.9,"21:45:20",1
"21/10/08","22:00",0.0,21.7,81.6,1017.1,325.6,1.3,2.2,322.4,0.00,18.5,24.0,"21:57:52",1
"21/10/08","22:10",0.0,21.5,82.1,1017.1,332.4,1.7,3.1,338.7,0.00,18.4,23.7,"22:07:12",1
"21/10/08","22:20",0.0,21.5,82.4,1016.8,328.3,1.7,2.8,341.4,0.00,18.4,23.7,"22:13:28",1
"21/10/08","22:30",0.0,21.4,82.7,1016.8,327.6,1.6,3.5,339.2,0.00,18.4,23.9,"22:25:28",1
"21/10/08","22:40",0.0,21.3,83.1,1017.3,329.4,1.8,3.1,346.8,0.00,18.4,23.7,"22:38:32",1
"21/10/08","22:50",0.0,21.3,83.5,1017.3,332.8,2.1,3.4,334.4,0.00,18.4,23.8,"22:43:36",1
"21/10/08","23:00",0.0,21.1,83.7,1017.3,325.2,1.6,2.4,324.9,0.00,18.3,23.6,"22:51:20",1
"21/10/08","23:10",0.0,21.1,83.8,1017.5,329.1,1.8,3.1,333.7,0.00,18.3,23.7,"23:01:12",1
"21/10/08","23:20",0.0,21.0,83.9,1017.8,327.6,1.8,3.4,338.2,0.00,18.2,23.6,"23:16:16",1
"21/10/08","23:30",0.0,21.1,83.9,1017.5,326.4,2.0,3.2,342.9,0.00,18.3,23.5,"23:24:24",1
"21/10/08","23:40",0.0,21.3,83.7,1017.8,318.8,1.8,3.5,331.6,0.00,18.5,23.5,"23:35:20",1
"21/10/08","23:50",0.0,21.0,83.8,1018.0,332.4,2.1,3.2,334.3,0.00,18.2,23.7,"23:40:02",1
"21/10/08","24:00",0.0,21.1,83.9,1018.0,314.9,1.8,3.3,327.8,0.00,18.3,23.5,"23:50:16",1
